STARLINK-11271, 60915

Orbit data source: Space-Track

STARLINK-11271, 60915 is a payload satellite owned by SpaceX/Seattle (US) in LEO that was launched on Sat, 31 Aug 2024 UTC via an FALCON 9 launch vehicle from the Air Force Eastern Test Range (AFETR). Payload-class satellites include a variety of spacecraft equipped with specific instruments for various scientific and technological missions. These include communications satellites like Starlink; space stations such as the ISS; scientific satellites like the Hubble; Earth observation satellites from companies like Planet Labs, Umbra, and HawkEye 360; GPS; miniature CubeSats for education and research; and military/defense satellites.

Loading next visibility...
Identifier
60915, 2024-154N
Orbit
LEO
Country
Flag of USUS
Related business
Manufacturer
SpaceX/Seattle
Mission
Operational Commercial Communications
Bus & Motor
STARLINK V2MD, Unknown motor
Mass
960 kg wet, ~910 kg dry
Launch date (UTC)
2024-08-31 (2 years ago)
Launch vehicle
FALCON 9
Launch site
Air Force Eastern Test Range (AFETR)
Object type
Payload
Rocket body
Debris
Shape & HBR
Box + 2 Pan, 18.1 m
Radar Cross Section
36.964 m², Large (>1 m²)

Expand to show TLE details & history
Last TLE update: 1 day ago

TLE from 1 day ago
0 STARLINK-11271
1 60915U 24154N   26175.12268989  .00000435  00000-0  84463-5 0  9995
2 60915  53.1586 326.3827 0001161  86.8147 273.3004 15.69709348105226
Epoch: 2026-06-24T02:56Z
TLE epoch observation values (Epoch: 2026-06-24T02:56:40.406Z)
Latitude
-0°
Longitude
9.92991°
Altitude
360.599 km
Speed
7.694 km/s
True Right ascension
21h 45m 31s
True Declination
0° 00' 00"
Sunlit
Object was in full shadow at epoch
Visualization orbit readout
Latitude
Unknown
Longitude
Unknown
Altitude
Unknown
Speed
Unknown
Apparent Right ascension
Unknown
Apparent Declination
Unknown
Sunlit
N/A
Visualization observer readout
Local Sidereal Time
17:02:21
Azimuth
Unknown
Elevation
Unknown
Doppler factor
Unknown
Orbital elements
Apogee altitude
360.772 km
Perigee altitude
359.207 km
Semi-major axis
6,738.127 km
Eccentricity
0.00012
Inclination
53.1586°
RAAN
326.3827°
Arg. of periapsis
86.8147°
True anomaly
273.28712°
Mean anomaly
273.3004°
Eccentric anomaly
273.29376°
Mean motion
3.92405 °/min
Orbital period
91.74 mins
BSTAR
0.0000084463
Loading maneuver chart data...
Computing Atmospheric mass density...
Loading historical data...
Loading historical data...
Loading historical data...
Loading historical data...
Loading historical data...
Loading historical data...
Loading historical data...

Documentation

Showing up to 5 results
|